Weather History for KIML - December, 2012

Change the Weather History Date:

Saturday, December 8, 2012

  Actual Average Record
Temperature  
Mean Temperature 39 °F 29 °F  
Max Temperature 52 °F 42 °F 69 °F (1970)
Min Temperature 26 °F 16 °F -18 °F (2005)
Degree Days  
Heating Degree Days 26 36  
Month to date heating degree days 179 279  
Cooling Degree Days 0 0  
Month to date cooling degree days 0 0  
Year to date cooling degree days 1382 963  
Moisture  
Dew Point 20 °F    
Average Humidity 53    
Maximum Humidity 75    
Minimum Humidity 30    
Precipitation  
Precipitation T in 0.02 in 0.68 in (1918)
Sea Level Pressure  
Sea Level Pressure 29.86 in    
Wind  
Wind Speed 12 mph (WSW)    
Max Wind Speed 28 mph    
Max Gust Speed 36 mph    
Visibility 10 miles    
Events Rain    
T = Trace of Precipitation, MM = Missing Value Source: NWS Daily Summary

Daily Weather History Graph

Daily Weather History Graph

Search for Another Location

Airport or City:

Trip Planner

Search our weather history database for the weather conditions in past years. The results will help you decide how hot, cold, wet, or windy it might be!

Date:

Astronomy

Dec. 08, 2012 Rise Set
Actual Time 6:57 AM MST 4:19 PM MST
Civil Twilight 6:27 AM MST 4:50 PM MST
Nautical Twilight 5:52 AM MST 5:24 PM MST
Astronomical Twilight 5:19 AM MST 5:57 PM MST
Moon 1:23 AM MST (12/8) 12:51 PM MST (12/8)
Length of Visible Light 10h 23m
Length of Day
9h 21m
Waning Crescent, 27% of the Moon is Illuminated
Dec 8
Waning Crescent
Dec 13
New
Dec 19
First Quarter
Dec 28
Full
Jan 4
Last Quarter

Hourly Weather History & Observations

Time (MST) Temp. Windchill Dew Point Humidity Pressure Visibility Wind Dir Wind Speed Gust Speed Precip Events Conditions
12:53 AM 26.1 °F - 19.0 °F 75% 29.99 in 10.0 mi Calm Calm - N/A   Mostly Cloudy
1:53 AM 28.0 °F 24.2 °F 19.9 °F 72% 29.96 in 10.0 mi SSE 3.5 mph - N/A   Overcast
2:53 AM 30.9 °F - 21.0 °F 67% 29.94 in 10.0 mi Calm Calm - N/A   Overcast
3:53 AM 32.0 °F 26.4 °F 21.2 °F 64% 29.87 in 10.0 mi South 5.8 mph - N/A   Scattered Clouds
4:53 AM 32.0 °F 23.6 °F 21.0 °F 64% 29.93 in 10.0 mi SSW 10.4 mph - N/A   Mostly Cloudy
5:53 AM 30.9 °F 23.5 °F 19.9 °F 64% 29.93 in 10.0 mi SSW 8.1 mph - N/A   Overcast
6:53 AM 30.0 °F 20.5 °F 19.9 °F 66% 29.91 in 10.0 mi SSW 11.5 mph - N/A   Overcast
7:53 AM 32.0 °F 21.6 °F 19.9 °F 61% 29.89 in 10.0 mi SSW 15.0 mph - N/A   Overcast
8:53 AM 34.0 °F 27.2 °F 19.9 °F 56% 29.89 in 10.0 mi South 8.1 mph - N/A   Overcast
9:53 AM 37.9 °F 32.1 °F 19.9 °F 48% 29.88 in 10.0 mi South 8.1 mph - N/A   Overcast
10:53 AM 42.1 °F 34.9 °F 21.0 °F 43% 29.83 in 10.0 mi South 13.8 mph - N/A   Overcast
11:53 AM 48.0 °F - 23.0 °F 37% 29.76 in 10.0 mi South 23.0 mph 29.9 mph N/A   Scattered Clouds
12:53 PM 51.1 °F - 21.0 °F 31% 29.70 in 10.0 mi South 20.7 mph 29.9 mph N/A   Scattered Clouds
1:53 PM 50.0 °F - 24.1 °F 36% 29.71 in 10.0 mi WSW 8.1 mph - N/A   Overcast
2:53 PM 46.9 °F - 27.0 °F 46% 29.72 in 10.0 mi North 10.4 mph - 0.00 in   Scattered Clouds
3:53 PM 44.1 °F 37.4 °F 26.1 °F 49% 29.76 in 10.0 mi NNW 13.8 mph 24.2 mph 0.00 in Rain Light Rain
4:53 PM 46.0 °F 40.6 °F 14.0 °F 28% 29.77 in 10.0 mi WNW 11.5 mph - 0.00 in   Overcast
5:53 PM 44.1 °F 35.9 °F 18.0 °F 35% 29.82 in 10.0 mi NW 19.6 mph 28.8 mph N/A   Overcast
6:53 PM 41.0 °F 35.2 °F 18.0 °F 40% 29.82 in 10.0 mi West 9.2 mph - N/A   Overcast
7:53 PM 39.0 °F 29.6 °F 25.0 °F 57% 29.86 in 10.0 mi NW 18.4 mph 24.2 mph N/A   Overcast
8:53 PM 36.0 °F 26.0 °F 21.9 °F 57% 29.91 in 10.0 mi NNW 17.3 mph - N/A   Overcast
9:53 PM 35.1 °F 25.9 °F 18.0 °F 50% 29.96 in 10.0 mi NW 13.8 mph - N/A   Overcast
10:53 PM 32.0 °F 20.1 °F 16.0 °F 52% 29.95 in 10.0 mi NNW 19.6 mph 28.8 mph N/A   Overcast
11:53 PM 30.9 °F 20.2 °F 17.1 °F 57% 29.95 in 10.0 mi NW 15.0 mph 23.0 mph N/A   Overcast